RH
38 52 65 75 78 77 76 64 65 61 50 42 42 61 45 28 55 69 53 83 95 94 94 98 93 84 81 81 88 76 88 94 89 82 92 89 84 70 68 44 54 64 77 97 100 98 90 76 76 75 60 61 71 72
49 41 48 56 55 68 79 85 78 73 57 46 44 57 49 53 60 75 63 39 100 96 96 95 96 88 72 74 76 83 79 70 75 80 85 83 83 70 67 79 64 87 83 94 96 92 90 85 85 96 84 82 83 82
50 41 31 28 33 52 75 87 92 96 92 66 53 54 50 56 60 58 61 85 98 97 97 96 94 83 70 81 72 93 90 85 70 73 82 85 91 84 95 92 94 86 87 88 81 57 71 85 94 77 89 84 86 78
64 50 47 26 39 53 66 69 86 93 93 78 59 54 48 50 52 62 77 90 97 97 96 98 95 84 92 91 92 94 95 87 86 76 64 86 97 96 88 81 77 68 73 63 60 75 90 88 99 90 93 94 84 88
98 91 48 33 37 74 52 60 66 97 90 79 60 50 51 55 56 68 88 75 100 98 96 94 94 79 81 88 88 76 68 63 64 87 90 88 87 86 81 79 72 60 51 43 34 62 87 82 97 98 89 87 92 82
22 74 80 82 80 75 46 60 57 88 98 74 53 54 54 57 62 75 97 56 96 95 97 98 86 77 72 69 62 62 69 67 66 69 64 58 49 54 60 52 43 33 22 20 23 48 73 67 74 87 86 82 78 72
48 12 15 51 64 78 89 88 67 86 87 69 64 56 55 61 72 95 94 76 87 98 95 89 82 84 81 75 69 65 61 62 55 63 51 46 58 84 46 22 10 22 36 38 61 65 61 65 63 76 80 85 84 73
94 95 62 44 55 73 75 95 92 88 68 66 65 58 62 71 99 97 97 95 97 97 96 92 71 61 61 59 51 50 63 70 80 78 56 95 99 98 70 18 28 43 48 48 54 76 76 66 68 62 80 81 81 82
96 87 98 93 86 92 75 77 82 73 53 47 54 73 76 92 99 96 96 95 96 97 89 76 66 59 62 55 64 69 85 95 85 75 84 100 97 74 31 31 43 47 53 62 76 72 73 71 68 69 93 93 91 92
94 90 35 30 58 57 50 54 62 52 56 78 95 96 100 74 75 97 98 97 99 94 80 65 66 66 57 60 72 79 91 100 98 80 86 90 51 38 40 40 69 64 60 64 66 66 81 92 91 98 99 98 98 93
96 87 77 76 53 42 44 41 39 69 96 97 97 96 97 97 97 96 91 90 82 71 60 55 61 61 67 74 73 71 95 95 98 79 83 90 49 32 53 77 77 64 62 65 72 75 88 82 93 97 97 96 95 86
90 96 94 94 96 96 96 97 97 97 97 96 91 96 96 97 92 89 82 70 61 62 55 48 50 55 66 72 82 80 81 96 95 97 98 98 64 60 72 68 62 80 86 84 82 69 91 96 94 93 89 90 92 83
70 86 94 96 95 96 97 97 97 98 97 96 96 96 94 84 75 70 72 67 55 50 49 49 54 58 65 70 88 87 87 91 96 98 95 91 79 68 67 68 66 57 75 77 55 89 71 81 91 94 100 94 53 37
47 49 65 76 82 87 89 90 94 95 96 94 86 77 66 58 65 64 60 57 56 57 57 59 72 81 68 82 93 84 73 84 96 94 72 62 63 65 69 83 87 61 37 47 87 92 98 99 93 77 60 42 36 36
41 54 51 56 68 75 78 74 69 67 61 62 60 57 60 58 55 56 58 63 63 65 70 79 88 95 90 83 83 74 95 92 92 74 63 63 63 70 77 85 86 54 54 73 75 85 89 68 44 37 36 36 36 39
9 38 60 65 76 81 82 82 81 77 70 64 62 64 61 58 60 64 67 73 72 82 85 97 96 96 97 91 96 76 91 78 62 57 57 61 70 73 60 66 81 62 87 79 61 49 43 44 46 48 48 46 45 46
8 9 34 71 70 70 72 69 67 66 66 67 65 62 69 73 74 72 68 75 77 75 82 92 96 96 97 93 94 94 82 69 70 66 69 68 41 34 30 36 69 76 89 66 54 55 53 47 45 48 51 53 53 54
30 32 23 73 84 80 76 67 75 80 82 79 78 77 73 73 71 73 77 79 84 84 81 96 97 98 91 89 82 72 65 65 58 47 48 38 54 49 28 30 49 93 93 70 62 60 56 56 56 57 58 56 53 51
84 82 84 82 76 78 79 76 81 83 80 78 89 89 92 88 89 90 90 91 91 95 97 97 95 88 89 77 66 64 57 45 41 39 37 34 32 31 30 33 54 98 96 78 71 64 58 58 57 60 67 66 59 57
86 84 83 84 82 77 72 75 73 72 62 63 72 94 94 95 96 96 98 98 95 97 96 95 84 83 84 83 76 56 50 50 52 52 49 44 38 34 34 45 75 100 99 94 78 59 58 61 63 68 74 70 62 63
72 73 73 71 78 73 68 66 67 66 61 60 56 56 63 66 64 76 95 100 97 90 94 91 96 96 76 69 64 58 58 60 58 56 47 44 41 40 44 68 88 99 97 94 94 83 74 71 68 65 66 66 67 61
63 70 68 67 63 64 67 70 71 68 63 61 61 62 59 53 56 59 64 66 77 81 83 83 96 99 95 90 81 73 71 68 62 56 48 50 62 66 81 95 100 99 96 98 96 95 96 85 76 70 64 62 52 50
17 17 17 17 45 63 66 37 39 38 45 52 50 54 62 64 64 63 63 56 53 58 66 72 78 83 84 81 79 81 77 74 70 62 58 68 86 93 96 99 97 96 96 96 96 95 90 82 70 61 54 53 58 70
16 17 19 17 18 23 17 17 19 22 22 26 30 36 47 50 61 69 63 56 57 61 62 62 59 60 61 62 64 66 72 76 73 69 65 74 96 99 99 99 97 95 93 93 94 94 87 65 57 57 62 74 84 88
19 22 20 20 19 18 18 18 20 22 23 27 25 21 26 32 37 25 17 21 42 66 70 72 73 67 64 66 74 77 82 86 84 75 72 72 80 93 97 97 96 96 92 84 73 64 62 65 71 84 94 95 95 91
24 24 24 22 22 25 25 26 26 28 27 28 29 32 28 33 38 29 23 18 41 61 72 73 75 74 74 69 69 97 100 96 90 85 82 78 76 76 76 74 71 69 69 71 77 81 87 95 97 97 96 93 88 80
28 25 26 37 45 52 58 57 55 49 43 40 38 39 46 55 37 41 54 75 84 98 100 88 78 71 69 69 76 96 98 97 97 98 97 96 95 94 93 92 87 87 91 93 96 96 96 97 97 96 93 79 77 82
56 63 72 68 62 54 63 67 71 73 68 54 55 59 51 47 46 49 49 42 40 71 86 90 87 79 70 67 80 92 96 96 96 96 96 96 96 97 97 97 96 96 96 96 96 96 97 96 95 86 84 89 93 95
61 56 53 45 30 16 13 18 50 75 74 70 68 72 79 79 80 84 87 86 80 73 58 39 29 31 43 66 64 85 96 96 96 96 96 96 96 97 96 96 97 98 97 96 97 97 96 90 90 90 89 92 95 98
87 87 87 83 75 56 39 45 79 93 96 100 100 98 94 92 98 91 81 74 74 73 69 70 74 50 31 35 60 66 71 95 97 96 96 96 97 96 96 96 97 97 97 97 97 96 94 86 86 89 94 98 100 100
90 90 89 89 86 69 55 51 44 40 34 38 76 95 83 64 50 58 74 82 82 87 83 72 74 82 52 41 59 63 64 68 71 83 99 98 96 96 96 96 97 97 97 97 96 95 95 93 93 95 96 97 98 100
84 91 96 88 72 55 60 70 60 64 78 78 66 52 30 27 35 37 59 81 92 99 95 89 85 91 81 58 77 85 87 82 77 83 99 100 100 98 96 97 98 98 97 96 97 96 95 95 96 97 98 98 99 100
83 90 96 95 78 65 67 78 68 54 38 33 32 49 88 77 82 100 100 100 100 100 100 100 98 99 98 81 82 100 100 100 97 97 98 100 100 100 98 98 98 97 97 97 96 96 97 97 98 98 99 100 100 100
Wind_Speed
32 30 28 27 27 28 28 28 27 28 30 31 34 34 35 35 32 32 37 37 35 33 35 30 36 29 24 23 18 15 26 25 21 21 19 16 14 19 19 26 23 17 9 13 16 13 12 8 11 17 13 12 11 10
35 32 31 29 28 28 27 27 27 26 27 29 32 33 34 33 32 29 31 37 36 29 25 33 30 32 31 24 22 22 24 25 21 17 21 16 18 19 18 15 15 18 20 9 4 9 12 14 14 14 13 14 16 12
39 38 34 31 29 27 27 25 24 26 29 29 30 32 33 33 32 32 30 29 30 27 25 28 32 29 24 24 21 21 26 22 21 18 17 18 17 15 16 18 15 13 13 16 20 23 22 26 26 23 20 19 17 20
45 43 40 36 31 29 27 27 24 24 27 29 29 30 30 32 31 31 30 30 32 19 30 27 33 29 24 23 20 21 23 24 21 22 23 23 20 17 19 19 22 21 21 23 26 19 18 16 11 21 32 19 19 16
46 50 45 39 35 31 29 27 25 20 17 24 26 27 30 32 30 27 26 35 26 30 16 33 26 26 21 21 22 23 22 22 21 20 21 25 32 27 29 30 35 30 27 27 27 23 19 14 1 6 5 12 8 10
13 27 38 39 37 32 27 26 24 22 19 20 23 28 32 30 27 23 19 30 28 34 27 24 27 19 23 23 23 20 20 23 24 22 25 28 31 28 24 38 42 36 30 23 22 20 24 16 6 8 9 9 11 12
10 13 25 32 31 28 25 24 25 21 21 22 27 30 29 28 31 31 22 26 29 29 23 10 18 27 22 21 21 22 25 24 22 25 29 29 28 23 33 45 37 28 23 18 16 21 27 24 19 13 12 12 14 14
5 7 19 26 28 29 28 24 23 26 26 26 26 28 29 30 26 26 26 22 27 33 28 9 8 11 17 18 16 17 20 22 23 25 29 24 17 20 34 33 23 17 13 16 18 21 23 21 20 20 15 14 15 15
16 10 9 17 22 21 28 27 26 26 28 28 28 28 29 37 33 29 19 16 27 17 11 10 13 11 10 13 17 16 18 23 24 26 30 28 28 33 37 29 24 26 28 20 17 19 20 20 18 17 17 18 18 19
26 27 28 24 28 27 29 30 30 31 31 32 28 38 32 39 28 28 21 22 20 21 18 17 15 15 11 14 13 10 12 18 16 23 21 27 40 36 29 26 23 20 23 23 26 22 19 19 20 18 22 19 21 21
35 31 34 35 35 32 31 33 35 37 33 29 32 22 42 43 34 27 13 13 10 9 14 18 19 18 17 16 13 7 8 7 9 17 18 17 35 26 14 12 14 11 11 17 19 17 16 16 18 26 17 12 10 7
38 41 35 35 30 29 27 27 32 34 42 42 39 36 35 28 13 7 9 8 7 10 4 7 12 16 22 20 12 8 11 8 7 8 7 6 18 12 11 9 7 4 3 4 8 11 15 13 6 7 10 8 8 11
29 32 34 32 31 36 32 34 39 41 36 34 32 19 19 8 8 8 11 10 8 7 7 6 7 12 15 14 10 7 7 8 7 3 4 4 5 9 7 5 5 7 8 10 11 5 5 4 5 6 7 11 11 12
22 22 23 24 23 21 21 19 19 20 22 19 8 9 7 6 6 5 9 12 10 8 7 8 9 6 13 11 9 6 7 6 4 5 6 8 9 8 6 6 8 10 8 5 8 9 9 10 10 10 13 11 10 10
17 16 17 19 20 19 18 17 17 16 18 8 5 4 6 5 3 7 5 8 11 11 11 11 11 12 14 10 8 8 5 6 7 7 8 7 6 7 8 8 10 10 7 1 5 7 7 8 9 9 9 8 8 8
13 12 10 12 14 15 12 11 11 13 12 7 4 3 5 7 6 4 6 9 12 13 11 14 10 7 11 9 9 9 6 7 5 6 5 5 6 8 10 10 10 8 5 3 4 5 6 6 7 7 7 7 7 7
12 6 4 9 11 8 7 6 5 6 5 4 4 7 4 4 7 9 9 11 14 13 14 13 9 9 7 7 9 12 16 13 9 9 11 10 7 8 10 10 10 7 6 5 5 5 5 6 6 6 6 6 5 5
9 7 4 7 7 6 2 1 3 1 2 6 7 8 10 11 10 10 11 11 11 10 9 13 6 9 6 6 9 10 5 6 8 11 13 12 13 13 13 12 9 10 9 6 6 6 6 6 6 6 5 5 5 5
8 7 5 5 3 2 2 3 1 2 2 2 2 4 7 9 9 8 10 11 10 13 6 7 7 8 12 7 6 6 8 9 10 11 12 12 12 14 15 13 12 13 12 10 8 8 7 6 6 7 6 6 6 6
7 5 5 3 1 1 2 2 3 1 2 2 1 2 2 5 5 4 5 5 6 12 15 11 12 10 9 11 11 9 7 8 10 12 13 13 13 12 13 13 15 17 18 14 10 8 7 7 7 7 7 8 8 9
3 3 3 3 3 2 3 3 3 3 4 4 6 4 3 4 6 6 6 7 10 13 15 10 7 12 11 11 13 13 13 14 15 15 15 14 13 11 11 13 15 17 18 12 11 10 10 9 8 9 10 11 10 10
8 6 6 5 5 4 3 3 5 8 8 6 6 7 7 7 6 6 8 9 11 10 11 15 17 14 15 15 16 16 16 16 15 14 14 12 9 9 9 12 15 16 18 14 12 11 11 11 11 12 12 11 11 11
10 11 11 9 3 2 2 5 6 7 8 7 9 9 8 9 10 10 8 8 9 8 11 13 15 15 15 15 16 16 15 15 15 14 13 11 9 10 12 14 15 17 18 17 13 13 13 12 12 12 11 11 11 13
14 12 9 4 3 4 6 6 8 8 7 9 9 10 10 12 12 13 12 10 9 12 14 15 17 17 16 16 17 19 18 17 15 13 11 11 11 11 12 13 10 9 11 13 14 13 12 12 12 11 11 13 16 18
10 4 4 4 4 6 8 10 11 12 12 11 13 15 12 13 14 16 11 9 9 9 12 14 15 16 16 18 15 14 14 14 13 12 11 11 11 11 12 13 12 11 11 11 12 12 12 12 12 14 16 17 18 18
4 3 3 5 8 10 14 14 14 16 17 17 10 11 16 18 17 10 16 14 12 11 12 13 13 14 15 14 15 14 15 14 14 13 11 11 12 12 12 13 13 13 13 13 14 14 15 16 17 16 17 17 18 19
4 4 8 12 15 17 19 20 19 18 19 20 16 14 13 5 6 8 10 13 13 11 11 10 10 11 13 14 16 16 15 13 15 16 16 17 17 16 15 15 16 17 17 18 18 18 17 17 17 17 18 18 18 18
11 15 16 18 19 20 21 20 19 19 12 11 12 10 7 7 10 15 20 21 20 20 19 19 16 14 13 13 14 16 16 15 15 15 16 17 17 17 16 16 15 15 16 16 16 15 16 17 17 17 16 16 17 19
18 23 25 24 22 22 22 22 21 19 17 17 19 20 22 22 21 22 22 22 22 22 22 23 24 24 23 19 15 16 17 16 16 15 14 15 15 15 15 16 16 16 16 16 17 17 15 14 15 16 18 19 20 21
22 21 21 21 21 20 18 15 16 18 20 22 23 26 27 26 25 24 25 23 23 24 23 22 21 21 21 20 20 18 16 17 19 18 17 16 16 16 17 17 17 17 17 16 14 13 13 15 17 20 21 21 21 21
20 20 20 21 23 20 19 20 22 24 25 25 24 26 26 28 27 26 25 23 23 24 23 21 20 19 18 18 18 19 19 20 19 18 17 16 17 17 17 16 14 13 13 13 14 15 17 20 21 21 20 19 18 17
21 20 23 22 20 18 17 17 19 18 15 14 17 21 21 22 22 23 17 15 17 19 20 20 17 17 17 17 17 16 16 15 16 17 17 17 16 15 14 13 13 13 14 15 17 19 21 21 20 18 17 16 15 15
23 21 19 20 23 21 21 21 23 25 24 22 16 9 5 6 7 10 11 9 10 11 13 15 15 16 17 19 19 18 16 14 13 13 13 13 13 13 13 13 14 15 17 19 20 20 19 18 16 15 14 14 14 14
Wind_Direction
272 270 265 263 264 264 262 257 252 247 245 240 234 229 226 224 223 231 229 222 230 245 245 233 228 220 222 224 234 235 224 226 235 246 247 245 250 261 262 265 250 249 253 224 224 224 254 284 261 244 267 281 285 269
264 264 261 260 261 261 259 255 249 247 241 233 229 226 220 217 219 226 231 217 226 242 244 232 225 236 221 226 242 238 230 233 236 233 236 245 245 252 252 247 258 239 240 234 262 261 244 278 238 247 261 260 269 273
264 256 257 258 256 257 256 254 249 251 241 234 227 224 218 210 212 220 225 213 211 230 223 229 221 228 226 230 233 233 233 234 246 250 246 254 232 237 239 234 252 262 271 284 302 312 297 294 248 230 236 246 260 277
260 252 249 252 252 253 251 250 248 250 241 228 223 218 212 206 209 212 221 206 215 234 219 218 220 226 223 229 235 239 239 248 250 252 258 258 251 241 250 259 262 266 270 280 293 311 305 309 336 268 234 250 258 262
271 247 243 244 248 243 244 242 241 230 224 217 214 207 200 199 202 211 216 204 214 211 244 228 227 226 223 230 233 240 246 253 259 250 255 256 268 272 272 273 269 273 278 281 281 295 304 317 354 313 258 231 255 250
270 241 229 229 231 230 233 231 227 221 221 207 198 191 191 193 192 197 215 205 200 204 220 214 214 222 230 233 241 237 242 254 259 262 264 262 265 273 272 273 274 281 284 286 274 272 279 296 303 280 253 244 247 244
307 229 206 212 216 216 213 221 215 210 196 190 186 186 186 184 181 181 195 211 201 211 208 177 207 219 228 234 236 239 246 251 249 258 267 262 260 266 269 267 275 283 286 281 267 264 272 283 286 258 255 252 248 248
336 237 204 204 205 209 206 195 191 188 182 182 179 178 179 181 189 197 214 203 172 188 201 197 198 203 217 220 223 231 241 248 256 253 256 261 260 264 265 273 286 302 308 262 254 257 274 278 267 256 252 255 250 252
63 79 93 145 170 169 180 179 173 168 168 169 166 161 170 174 194 202 192 208 198 181 193 198 207 224 228 228 228 244 250 249 249 254 250 256 261 255 263 283 296 297 289 287 244 255 267 269 264 244 247 250 248 241
74 89 91 112 134 140 151 156 158 165 167 173 162 148 167 190 190 154 156 173 185 205 221 229 224 224 224 220 217 266 259 238 242 255 260 256 265 269 276 293 295 280 255 244 250 254 254 264 263 249 246 234 234 238
67 92 104 107 119 127 138 145 156 163 162 163 160 143 133 139 145 157 165 178 186 215 239 241 232 231 225 230 244 258 255 240 251 259 238 251 264 277 283 271 278 286 260 254 257 258 253 253 275 246 235 236 242 253
68 78 99 110 102 113 124 137 150 158 157 157 154 146 159 165 158 157 175 177 197 206 207 208 210 222 229 238 244 251 258 245 242 241 213 249 278 280 255 264 291 293 230 245 271 286 257 241 244 242 235 240 251 262
76 82 85 91 105 121 120 130 142 155 152 152 140 138 157 150 171 175 183 178 189 158 175 207 218 227 233 231 220 225 242 248 280 235 253 257 230 235 241 263 287 286 281 276 274 228 204 215 238 248 253 260 263 255
80 92 96 100 107 114 112 109 116 126 140 146 122 142 165 184 186 183 184 189 196 205 220 224 232 233 217 197 211 221 237 256 243 243 245 253 248 251 252 266 288 297 279 261 221 213 201 236 247 241 251 254 251 246
63 75 97 110 113 114 117 125 135 152 164 140 134 174 189 189 183 200 209 207 216 225 235 242 242 249 227 209 212 216 223 234 229 236 259 262 257 260 267 275 294 306 308 283 210 227 234 245 243 241 240 238 234 228
49 73 107 112 115 116 123 136 151 161 176 173 173 175 196 207 213 216 228 233 236 236 243 245 244 248 207 188 201 207 214 232 247 258 260 260 267 271 276 273 275 282 260 265 254 236 229 224 220 218 217 218 216 213
14 29 123 166 149 125 122 134 171 197 210 212 217 214 219 229 221 225 240 247 241 247 240 257 236 209 168 193 206 212 230 241 258 261 282 274 280 294 294 279 261 240 226 238 236 222 216 214 207 200 194 192 196 200
41 57 113 162 167 181 163 24 35 123 219 243 250 242 238 234 251 250 241 247 240 238 228 249 213 196 194 204 223 239 250 256 265 279 275 273 265 276 282 278 250 219 221 228 228 220 216 212 209 206 202 205 216 221
66 70 88 103 147 194 263 322 283 309 286 321 304 253 242 240 238 246 246 243 234 208 236 227 230 227 222 232 223 242 256 270 280 286 285 280 274 262 262 260 229 214 221 217 216 221 223 223 230 229 222 226 237 242
71 78 80 85 85 117 62 31 3 333 333 320 305 264 259 241 249 282 250 257 225 224 234 241 247 245 235 230 246 248 252 274 289 292 291 289 276 272 254 245 216 215 227 212 209 208 225 235 236 235 236 244 253 254
43 62 52 59 76 40 7 346 355 358 354 341 338 337 296 273 277 263 249 239 239 246 223 239 249 221 220 228 238 252 269 282 294 296 293 289 276 261 243 227 214 220 223 201 200 214 226 240 250 256 257 255 256 261
17 359 345 326 318 315 301 311 321 323 317 311 314 318 316 320 318 306 288 272 262 257 257 249 246 249 246 252 263 271 275 277 280 288 290 283 263 240 224 215 220 228 217 216 216 226 235 240 250 258 258 260 262 267
354 350 345 348 3 355 334 333 328 328 320 317 324 323 318 317 312 307 305 304 293 279 262 257 255 255 260 263 264 266 270 272 275 278 280 267 247 230 222 230 239 230 232 222 211 234 241 250 257 257 257 264 273 284
318 321 319 311 328 320 328 338 339 337 334 337 336 332 321 317 316 308 310 306 289 276 273 271 267 261 258 258 262 261 263 266 267 263 260 252 240 233 235 244 243 227 223 226 230 238 245 248 251 258 266 277 285 288
324 315 289 292 304 311 315 318 322 319 315 312 310 314 304 310 309 311 311 316 303 289 278 270 267 267 263 256 261 259 255 255 252 250 247 247 244 238 240 244 246 245 243 242 240 240 243 249 255 266 276 281 283 286
309 284 291 303 311 312 311 310 307 307 304 303 292 291 295 299 295 277 283 295 296 287 283 282 280 276 266 259 249 240 245 247 243 240 239 241 242 240 238 238 238 237 239 241 244 247 251 260 268 272 276 279 282 285
300 297 316 316 309 305 302 302 302 299 298 301 295 290 292 258 262 267 284 296 297 295 297 300 298 296 282 271 252 242 245 251 245 242 244 244 238 233 236 238 241 244 247 251 257 260 263 267 270 274 278 282 284 285
317 310 310 310 311 308 304 305 301 299 291 278 271 275 267 258 275 290 292 290 283 278 279 283 283 285 291 282 265 250 250 256 258 254 249 245 241 237 237 242 245 250 254 256 257 261 265 271 276 280 282 283 285 285
307 304 304 306 304 301 298 296 291 286 281 276 278 280 278 284 289 296 294 291 287 286 283 278 273 271 271 270 274 261 250 243 250 256 255 251 249 250 248 247 246 249 254 258 261 266 271 275 278 283 286 286 286 286
322 314 307 311 313 313 310 292 274 266 265 267 272 277 279 284 288 284 285 288 293 295 290 280 274 272 264 259 257 260 260 255 256 258 257 257 256 251 251 252 254 257 258 259 260 264 270 277 284 287 287 286 284 282
322 316 311 305 308 312 299 288 286 283 280 278 273 277 286 288 285 282 282 284 289 290 290 286 274 265 263 256 255 252 252 253 253 253 252 251 252 255 257 257 256 252 252 256 262 268 276 283 285 283 281 280 279 278
323 322 319 316 319 315 302 297 297 297 294 292 292 295 290 283 286 289 296 285 275 276 277 280 276 256 249 249 249 251 251 251 249 249 246 246 249 248 245 245 247 254 260 267 273 278 282 282 280 278 277 277 276 275
325 322 319 316 322 323 319 308 305 306 310 315 316 316 315 349 343 348 346 334 320 308 288 280 272 259 245 238 240 244 250 252 253 250 245 241 237 238 241 247 256 265 272 276 280 280 277 275 273 273 272 273 273 272